GFSFLT1_sfc_dewp_060.txt.gz
Dewpoint
49 51 53 55 57 57 59 59 58 57 57 59 59 58 58 59 59 59 55 51 55 54 51 55 53 50 50 49 49 47 45 42
49 51 53 55 56 57 57 58 58 58 56 56 57 57 56 58 58 58 57 53 55 55 53 54 54 52 52 54 52 51 47 45
49 50 52 54 54 56 56 57 57 57 57 56 57 57 58 57 57 56 57 57 55 56 57 54 54 53 55 55 55 51 48 47
49 50 51 53 53 54 55 56 57 57 57 57 57 58 57 57 57 53 54 56 56 55 57 55 56 55 55 57 56 54 51 51
48 50 50 52 53 54 54 55 57 57 58 56 57 54 53 54 55 56 54 57 57 55 56 56 58 57 56 57 57 56 55 53
48 50 50 50 53 54 54 54 56 57 57 57 56 55 53 53 54 56 56 57 57 57 57 58 59 60 60 59 59 58 56 56
47 50 51 50 52 53 53 53 54 57 57 57 57 55 54 54 55 55 55 55 57 58 57 59 59 58 57 57 58 59 58 57
47 49 50 50 51 52 53 53 53 55 57 57 57 56 55 54 54 54 54 55 55 56 57 58 56 56 56 55 57 58 59 57
46 48 50 50 51 51 52 53 52 54 56 56 57 57 55 53 54 54 53 53 53 55 55 55 54 54 55 56 56 55 57 57
45 48 50 51 51 51 52 51 52 54 54 55 56 56 56 55 54 54 54 55 52 53 54 55 55 54 55 55 56 55 57 58
45 47 50 51 52 51 52 51 51 53 54 56 55 56 55 55 55 55 54 55 54 53 53 54 54 54 54 54 56 56 56 57
45 46 49 51 52 51 51 51 50 52 54 54 54 54 54 55 54 55 55 56 55 54 54 53 52 53 53 54 54 54 54 55
42 47 49 50 51 51 51 51 50 50 52 54 54 55 54 54 55 54 57 56 56 55 55 55 54 54 55 54 55 53 54 55
40 43 47 49 50 51 51 51 50 50 50 52 54 55 55 55 55 55 55 55 55 54 54 55 55 55 54 55 54 55 56 56
34 40 43 47 49 50 50 51 52 51 50 51 52 54 55 55 55 55 55 54 53 53 54 54 55 54 53 54 54 56 56 56
33 34 37 42 46 49 50 51 52 52 51 50 52 54 54 53 54 54 54 54 54 53 54 54 55 54 54 56 55 56 55 55
32 32 33 35 40 45 49 50 51 52 52 51 51 52 52 53 52 53 53 53 53 53 53 53 54 54 48 46 52 57 56 55
35 33 34 36 38 41 45 49 51 52 52 51 51 51 51 52 52 52 52 53 54 53 54 54 55 56 47 45 45 56 55 55
41 41 40 36 37 38 44 45 49 51 51 51 51 51 51 52 52 52 53 54 54 55 55 55 55 55 46 45 44 53 55 53

GFSFLT1_sfc_dewp_063.txt.gz
Dewpoint
48 48 51 54 57 59 60 60 59 58 59 59 59 59 59 59 59 58 57 55 56 56 55 56 52 52 52 52 52 49 48 45
48 48 52 54 56 58 59 59 58 56 57 57 57 57 58 59 59 57 56 53 54 55 54 57 57 53 53 56 51 50 46 46
47 48 51 54 54 57 58 59 57 57 56 57 57 57 57 57 59 59 57 55 54 55 56 56 56 54 56 56 56 50 48 47
46 48 50 53 53 55 56 58 58 57 56 57 57 58 57 56 58 58 57 57 53 56 58 57 57 57 57 58 57 55 50 50
46 48 49 52 53 55 56 57 58 57 57 56 56 54 54 54 55 57 57 56 56 56 57 58 58 57 58 59 57 57 56 53
44 47 48 49 52 55 54 56 57 57 57 56 55 54 55 55 54 55 54 54 56 56 57 57 59 59 59 60 60 59 57 58
43 47 49 48 51 54 55 54 55 57 58 57 56 54 54 55 56 55 53 54 55 58 58 57 58 59 59 59 59 60 59 57
43 46 48 47 50 53 53 53 54 56 57 57 57 56 55 54 55 54 53 53 55 57 58 59 59 59 57 58 60 60 59 59
42 45 48 48 49 51 52 53 53 55 57 57 57 56 56 54 54 53 54 54 55 57 59 58 57 57 56 58 57 56 57 58
41 44 48 49 49 51 52 51 52 54 56 57 57 57 57 56 55 55 54 55 55 57 57 57 57 57 57 56 54 54 56 56
39 43 48 49 50 49 52 51 51 53 55 57 57 57 58 56 56 56 55 55 56 56 57 57 56 55 54 55 54 53 55 56
39 43 46 50 50 50 51 50 50 52 54 55 56 56 57 57 57 57 57 57 56 56 55 55 55 54 54 54 55 55 55 55
40 43 46 49 50 51 50 51 49 50 53 54 56 57 57 58 58 57 59 57 56 56 56 54 53 53 54 54 54 53 55 55
38 43 45 47 49 51 51 51 50 50 50 53 56 57 57 58 58 57 57 57 57 56 55 55 54 54 55 55 54 54 55 55
31 38 42 45 48 49 50 52 53 51 49 51 53 56 56 57 57 57 57 57 56 55 56 55 56 55 55 55 55 55 55 55
33 33 34 38 44 48 49 50 52 53 51 50 52 55 56 55 57 57 57 57 56 56 56 57 57 56 54 56 55 56 56 55
38 38 34 34 34 40 46 48 50 52 52 52 51 53 54 55 55 56 57 57 56 57 56 55 56 53 47 44 50 56 55 54
40 40 40 41 39 38 39 43 49 50 52 52 52 53 53 55 55 54 55 56 57 56 56 56 56 56 45 44 43 54 55 56
42 43 44 45 45 43 41 38 42 48 50 51 52 53 53 53 54 54 55 55 56 55 55 55 55 55 45 44 43 53 55 56

GFSFLT1_sfc_dewp_069.txt.gz
Dewpoint
48 50 55 55 59 58 58 59 59 59 59 60 60 61 59 60 60 60 60 59 59 60 59 59 60 57 57 54 52 52 50 51
48 49 54 55 59 59 59 59 59 59 58 58 57 57 59 59 59 60 59 58 58 58 58 59 57 58 56 53 52 51 50 50
47 49 52 55 58 59 58 58 58 58 58 58 57 57 59 59 59 59 58 58 56 56 57 57 54 58 57 54 50 49 49 50
46 49 51 56 56 58 58 57 57 58 58 58 57 57 57 57 57 57 57 57 54 54 56 57 56 56 56 53 50 48 48 48
46 48 50 55 57 58 58 57 56 57 58 57 56 55 54 55 55 55 54 55 55 53 55 54 55 57 55 54 54 51 52 46
46 47 50 52 56 57 57 57 56 56 57 56 55 53 54 54 55 53 54 55 54 54 55 56 55 55 56 56 56 55 54 53
47 47 50 52 57 57 57 56 56 56 57 56 55 53 53 52 54 54 55 55 55 56 54 57 57 56 57 57 56 56 56 56
47 47 48 51 56 56 56 56 55 56 55 56 55 54 53 52 52 54 54 54 54 55 56 56 56 57 57 57 56 56 56 56
47 47 48 50 54 54 56 55 55 56 56 55 55 54 54 53 52 53 54 54 53 53 56 57 57 55 56 57 57 56 57 57
47 48 48 50 53 53 53 56 55 56 56 55 55 54 54 54 53 52 53 53 53 53 53 57 57 56 55 56 56 55 56 56
44 47 48 50 53 53 53 55 55 56 56 56 55 55 54 54 54 53 52 52 53 52 52 55 56 56 56 55 55 55 54 55
39 47 48 49 51 53 52 53 53 55 56 55 55 55 55 54 54 55 54 53 53 53 52 54 55 55 56 56 55 54 53 52
41 48 49 48 50 52 52 52 52 54 55 55 54 56 56 55 54 54 55 54 54 53 52 53 53 54 54 54 54 54 53 52
41 43 47 49 48 51 52 52 51 53 55 55 54 55 56 55 56 56 55 55 54 54 54 52 52 54 54 54 54 53 53 53
43 45 48 50 51 52 52 52 52 52 54 55 55 54 54 55 55 55 56 55 55 54 54 53 53 53 54 54 54 54 54 54
44 46 48 48 50 51 52 51 53 52 52 53 55 55 55 55 55 55 56 56 55 55 55 54 53 53 53 54 54 54 54 54
44 46 45 44 44 46 47 48 52 53 54 51 53 55 55 55 55 55 55 57 56 56 56 55 55 53 48 45 51 54 53 53
45 43 42 41 41 42 43 48 48 50 51 51 53 54 55 55 56 55 55 55 57 56 56 56 55 55 46 44 43 52 53 52
42 40 39 38 37 38 43 43 43 44 44 46 47 47 49 52 55 56 56 56 56 56 56 56 56 55 46 45 42 50 53 53

GFSFLT1_sfc_dewp_072.txt.gz
Dewpoint
50 55 56 58 58 59 59 59 59 57 58 60 60 60 60 60 62 62 62 60 57 56 55 57 55 51 52 53 53 51 51 51
51 55 56 58 58 57 58 59 58 58 58 58 58 58 59 59 60 60 60 61 59 55 55 58 55 55 54 53 53 50 50 51
49 54 55 58 57 57 57 58 58 58 57 57 57 58 59 59 60 60 60 59 59 57 55 58 57 56 56 55 52 51 50 50
48 52 54 57 57 57 58 58 58 58 58 57 56 57 58 58 58 59 59 59 58 59 57 57 57 57 55 54 51 50 48 49
47 50 53 57 57 57 57 57 57 57 58 56 55 55 55 56 57 58 58 59 58 57 58 57 56 58 57 56 54 50 50 48
47 48 53 56 58 57 57 57 57 57 57 56 56 55 55 56 57 57 57 58 57 56 57 57 56 57 57 56 55 53 51 50
47 48 53 56 57 57 56 55 56 56 57 56 55 55 54 54 55 55 56 56 56 55 56 56 56 56 57 56 56 55 53 51
46 48 51 56 56 56 55 55 55 56 56 56 55 54 54 53 54 54 54 54 55 53 54 56 56 56 57 56 56 56 55 54
46 49 50 55 56 55 55 54 54 55 56 56 55 54 53 53 54 54 53 54 54 54 55 55 57 55 55 57 56 55 55 55
46 48 49 54 55 55 55 54 54 54 55 56 56 55 54 53 52 54 54 54 54 54 55 56 56 56 56 56 55 55 56 55
47 47 49 53 55 56 56 55 54 55 55 55 55 55 55 54 53 52 53 54 54 54 53 55 56 56 55 55 55 55 55 55
47 48 48 51 53 54 55 55 55 55 54 54 55 55 54 55 54 53 52 53 53 53 53 53 55 56 56 55 54 54 54 54
47 48 49 52 53 53 53 55 55 55 55 55 55 55 55 54 54 54 54 52 52 53 53 53 52 53 54 55 55 54 54 53
49 50 50 50 51 53 53 53 53 56 56 55 55 55 55 55 55 54 55 55 53 52 52 52 52 53 53 54 54 54 53 53
47 47 49 49 51 51 51 52 53 54 55 55 55 54 54 55 55 55 55 55 55 54 54 53 53 52 52 53 54 53 53 53
43 44 44 45 46 47 49 50 51 54 55 55 55 55 54 55 55 55 55 56 55 55 54 54 54 53 52 52 52 53 53 53
40 40 39 39 40 43 45 45 46 47 48 51 52 55 55 54 55 55 55 55 55 55 55 54 54 53 48 45 49 53 53 54
37 37 36 36 36 39 40 41 42 42 43 44 44 46 47 52 55 55 54 54 55 55 55 54 54 54 46 44 43 51 53 54
35 34 33 34 35 37 38 37 38 38 39 39 40 41 42 44 46 49 55 55 55 55 56 56 55 55 46 45 43 51 53 53

GFSFLT1_sfc_dewp_075.txt.gz
Dewpoint
48 55 58 58 58 58 58 58 58 59 60 59 60 60 60 62 62 61 60 60 59 57 55 54 54 50 52 52 51 50 51 53
51 56 57 58 58 58 58 57 57 58 59 59 57 58 59 60 61 62 60 59 57 54 55 54 53 49 51 52 52 49 50 51
54 55 57 57 58 58 57 57 57 58 58 58 58 58 59 60 60 60 62 60 58 54 55 53 52 50 53 53 52 51 50 51
53 54 56 57 56 56 57 56 57 57 57 57 57 58 58 58 59 59 60 61 59 56 55 54 53 52 54 54 52 51 49 51
51 53 55 56 56 57 57 57 57 57 57 56 56 55 56 56 58 59 59 60 60 58 57 57 56 55 55 55 53 51 50 49
48 52 54 56 56 56 57 56 56 56 56 56 56 55 55 56 57 58 58 58 59 59 58 58 57 58 56 56 54 52 52 52
47 51 54 56 56 56 56 55 55 56 56 55 55 54 55 54 56 56 57 58 57 58 59 58 57 58 56 56 56 54 52 52
47 50 54 55 55 55 55 55 54 55 56 55 54 54 54 54 56 56 56 56 57 56 57 58 57 57 57 57 56 56 55 54
46 49 53 55 55 55 55 55 54 55 56 55 54 54 55 54 55 55 56 56 56 56 56 57 57 57 57 57 57 56 56 55
46 49 53 55 55 55 55 54 54 54 54 55 55 54 54 53 54 54 55 55 55 55 54 55 56 56 56 57 56 55 56 56
47 49 53 55 55 55 55 54 54 54 54 54 54 54 54 53 53 53 54 54 54 54 54 55 55 56 56 56 55 55 55 55
47 48 52 55 55 55 54 54 54 53 53 54 54 54 55 54 53 52 53 54 54 54 54 54 55 55 55 54 54 54 55 54
49 51 52 53 53 55 54 54 54 53 54 54 53 55 55 55 54 53 52 53 54 54 54 54 54 55 55 54 54 54 54 53
47 49 49 51 53 54 55 55 55 55 55 54 54 54 54 54 54 55 54 53 52 53 53 53 53 53 54 55 55 54 54 54
43 43 45 47 50 51 51 52 54 56 56 55 54 54 54 54 54 54 54 55 54 53 53 53 53 52 52 52 53 54 54 54
41 41 41 42 45 45 46 48 47 49 55 55 54 54 54 54 54 54 54 54 55 55 54 53 53 53 52 52 52 52 52 53
36 37 37 37 38 40 41 41 42 44 44 44 44 46 50 55 54 54 55 55 55 54 54 54 54 53 47 45 49 52 52 52
34 34 34 35 36 37 36 36 38 39 39 40 40 42 43 44 45 49 54 55 55 55 55 55 54 54 46 44 44 52 52 52
32 32 32 33 34 35 34 33 33 34 34 34 36 37 39 40 42 43 43 45 48 54 55 55 55 54 37 40 43 51 53 53

GFSFLT1_sfc_dewp_078.txt.gz
Dewpoint
49 55 57 57 57 58 59 59 58 57 58 58 60 60 61 61 61 60 60 61 61 62 60 57 57 54 53 51 50 51 53 53
47 56 57 57 57 58 58 59 59 58 57 57 58 58 59 60 61 62 61 60 61 60 58 56 55 53 52 52 50 50 52 53
51 55 56 57 58 57 57 58 57 58 59 58 58 58 59 60 61 60 59 59 58 57 56 55 53 52 53 52 50 50 51 53
52 54 55 56 57 57 57 57 57 57 58 58 57 58 58 58 59 60 59 59 58 57 56 55 51 51 52 52 51 50 51 52
50 53 55 56 56 57 57 57 55 56 57 56 56 55 55 57 58 59 60 59 58 57 56 54 51 51 52 53 52 50 52 51
50 53 54 56 56 56 56 56 56 56 56 56 54 55 55 57 58 58 59 60 58 57 58 55 54 54 54 54 54 52 52 52
49 53 55 55 55 56 56 56 56 56 56 55 54 54 55 55 56 57 57 58 59 57 58 58 58 56 56 56 55 53 53 53
48 52 54 55 55 55 55 55 54 54 55 55 54 53 54 53 56 56 57 57 57 58 57 57 57 57 56 56 55 55 53 53
46 51 54 55 55 55 55 55 54 55 54 55 54 53 54 54 55 56 57 57 57 57 58 57 56 57 58 57 56 56 56 55
45 49 54 55 54 54 54 54 54 55 55 54 54 53 54 54 55 55 56 56 56 57 57 58 57 57 57 57 57 57 56 56
47 51 54 55 55 54 55 54 53 54 54 54 55 54 54 54 53 54 55 55 55 54 55 56 57 57 57 57 56 57 57 56
49 53 54 54 54 54 54 54 54 54 54 54 55 55 54 53 53 53 53 54 55 55 55 55 56 56 56 56 56 56 55 55
52 53 53 53 53 54 54 54 53 53 54 54 55 55 55 53 53 53 54 53 54 54 54 54 55 55 55 55 55 55 55 54
46 49 52 53 54 54 54 54 54 54 54 54 53 54 55 54 54 54 53 53 53 54 54 53 54 55 55 55 54 54 54 54
41 42 45 46 48 50 50 50 54 55 54 53 54 54 54 53 53 54 54 53 53 53 53 53 53 53 53 54 54 54 54 54
38 40 41 42 43 44 45 46 47 49 54 51 49 53 55 54 54 54 54 54 54 53 53 53 53 53 53 53 53 53 54 54
34 35 36 37 38 39 38 39 40 42 42 42 43 45 46 46 49 53 55 55 55 55 55 54 53 53 47 45 49 52 52 52
32 33 33 34 34 34 34 35 36 36 37 37 38 40 40 42 43 44 45 46 47 52 53 55 55 54 36 38 41 52 52 52
31 32 32 33 32 32 31 31 31 31 32 33 34 36 36 38 38 39 40 42 39 38 37 38 41 36 35 36 35 42 51 53

GFSFLT1_sfc_dewp_081.txt.gz
Dewpoint
32 50 55 57 59 61 61 61 61 61 61 60 60 61 61 62 61 61 61 61 61 63 62 61 60 59 57 55 55 55 55 54
30 45 56 58 60 60 59 60 60 59 59 59 59 59 60 61 61 62 61 61 61 61 61 59 59 58 56 55 55 55 54 55
32 48 56 58 59 59 59 59 59 59 59 58 58 59 60 60 61 61 62 60 61 61 58 59 58 57 57 55 55 54 54 55
32 49 55 57 58 59 58 58 59 59 59 59 59 59 60 60 60 59 59 60 61 59 58 58 57 57 55 55 55 55 53 54
30 47 53 56 58 59 58 58 58 58 60 58 57 56 56 58 60 60 59 59 58 58 57 57 55 56 55 54 53 54 55 53
34 46 51 55 58 58 57 57 58 58 58 57 57 57 57 59 59 59 59 59 58 57 57 55 55 55 56 55 54 54 55 55
42 49 53 55 57 57 56 56 56 57 57 57 57 57 56 57 58 58 58 59 58 58 57 56 55 55 55 55 55 55 55 55
48 52 53 55 56 55 55 56 55 56 57 56 56 57 57 56 57 57 58 58 58 57 57 56 56 55 56 56 56 55 56 56
44 51 53 54 55 55 56 57 55 55 56 55 55 56 56 56 57 57 57 58 58 58 58 57 56 56 56 56 56 56 57 57
46 48 54 55 55 55 56 55 54 55 55 55 55 56 56 55 57 57 57 58 58 58 58 58 57 55 55 55 56 56 56 56
47 49 54 55 54 55 55 55 54 55 55 55 55 56 56 56 56 56 57 57 58 58 58 57 57 57 55 54 53 55 56 56
52 53 53 55 54 55 55 55 54 54 54 55 55 55 55 55 55 56 56 57 57 57 57 58 57 56 55 56 55 55 55 56
50 53 53 54 54 54 54 55 54 54 54 54 55 55 55 54 55 55 56 55 56 56 56 56 57 57 57 56 55 56 55 55
44 45 51 53 54 54 54 54 53 53 54 55 55 55 55 54 55 55 55 55 55 55 55 55 55 56 56 56 57 56 56 56
39 41 42 44 46 48 50 52 55 55 54 54 54 54 55 55 55 56 55 55 55 55 55 55 55 55 55 56 56 56 56 55
36 37 37 39 40 42 44 45 47 51 48 48 48 49 54 55 55 56 56 56 54 54 55 55 55 55 54 55 55 55 55 55
34 34 34 34 35 37 38 39 40 41 41 41 42 43 44 46 47 47 50 50 49 55 54 54 54 49 36 37 44 55 55 55
33 33 33 31 31 32 34 34 35 35 36 37 38 39 40 41 41 42 43 42 41 41 40 43 38 36 35 36 36 46 51 53
32 32 32 31 30 30 31 32 33 33 33 33 34 36 37 38 37 38 37 36 35 35 35 35 35 33 34 35 36 42 47 38

GFSFLT1_sfc_dewp_084.txt.gz
Dewpoint
27 30 42 49 55 59 62 63 64 63 61 62 61 62 63 62 62 62 62 62 62 64 63 63 62 61 60 61 60 59 56 55
27 32 42 52 56 60 62 63 64 62 61 61 60 61 61 62 62 62 62 62 62 62 62 62 61 59 59 59 59 58 56 56
28 31 42 53 56 60 62 62 62 62 60 59 59 59 61 60 60 61 62 62 62 62 62 61 60 59 58 59 59 57 56 56
28 29 39 52 55 59 60 61 62 60 60 60 59 60 60 60 60 61 62 62 61 61 61 60 60 59 57 58 60 58 55 55
28 29 33 50 54 59 60 61 61 60 60 59 58 55 56 57 60 60 61 60 61 60 61 60 60 59 58 58 59 58 56 55
30 31 31 46 54 59 60 60 60 60 59 59 57 56 56 57 61 60 59 59 59 59 59 59 59 59 58 58 59 59 57 56
39 36 36 45 54 59 59 59 58 59 60 58 58 57 57 57 60 59 58 58 58 57 57 57 58 58 58 58 59 58 57 57
46 42 44 49 55 58 57 58 57 59 59 58 57 57 57 57 59 58 58 58 57 57 57 56 57 57 57 57 57 57 57 57
47 44 49 51 55 56 56 57 57 58 58 57 57 56 56 56 58 58 58 58 58 58 57 57 56 57 57 58 57 57 57 58
50 45 51 53 55 55 56 57 57 57 57 56 56 56 56 56 57 57 58 59 59 59 58 57 56 56 56 57 57 56 57 57
50 48 52 53 55 55 58 57 56 57 56 56 56 56 56 56 56 57 57 58 58 59 59 58 56 56 56 56 55 56 56 56
47 52 52 54 54 56 56 55 55 55 56 56 55 56 56 56 56 56 56 57 57 58 58 57 56 55 55 54 52 53 55 56
44 48 53 54 55 55 55 55 55 56 56 55 55 57 56 56 55 56 57 57 57 57 58 57 57 56 55 53 51 51 51 51
40 42 45 51 54 55 55 55 55 55 55 54 55 55 55 55 55 56 57 56 56 56 56 57 57 57 56 54 53 53 53 54
37 38 40 43 45 48 52 55 55 55 54 54 54 54 55 55 55 56 55 55 55 55 56 55 56 57 57 56 55 55 54 55
35 35 36 37 40 42 43 46 49 51 50 49 49 49 52 54 55 56 56 56 55 55 55 56 56 56 43 45 56 57 57 57
33 33 33 33 35 36 38 39 42 43 43 42 43 44 44 45 46 47 47 47 45 46 46 47 41 38 36 37 41 54 56 55
32 32 32 31 32 33 34 35 37 37 37 38 39 40 40 41 41 40 39 39 39 39 39 38 36 35 35 36 36 44 49 41
32 32 32 32 32 32 33 33 33 35 34 35 36 37 37 37 37 36 35 35 34 35 34 34 34 33 35 37 37 39 35 34

GFSFLT1_sfc_dewp_087.txt.gz
Dewpoint
27 25 26 29 37 48 57 64 64 65 64 63 62 61 62 62 63 64 64 64 63 64 63 64 63 63 63 63 61 61 59 57
28 29 29 35 44 52 57 63 64 64 63 61 60 60 61 62 62 64 64 64 63 63 63 63 63 62 62 62 61 60 59 56
28 30 30 41 48 54 58 62 63 64 62 60 60 60 59 61 62 62 62 62 63 62 62 62 62 61 61 61 60 59 59 57
29 30 30 42 49 55 57 60 62 63 61 59 59 59 59 60 60 60 62 63 63 63 62 62 61 61 60 60 60 58 56 57
29 30 30 38 50 55 57 60 61 62 61 59 58 57 56 57 57 58 60 61 61 62 62 62 61 60 59 60 60 59 58 56
29 30 30 29 46 53 58 60 60 61 60 59 58 57 55 56 57 60 60 60 60 61 61 61 60 60 59 59 59 59 59 57
35 35 35 29 40 54 60 59 59 60 60 59 59 57 55 55 59 60 59 60 59 59 59 60 60 59 59 59 59 59 59 58
47 43 38 36 43 54 59 59 59 59 60 59 58 57 57 55 58 59 59 58 58 57 57 57 59 59 59 59 59 59 60 58
48 50 45 42 44 54 59 59 59 59 59 58 58 56 55 55 58 59 59 58 58 57 57 57 57 58 58 59 59 59 60 59
48 50 46 48 50 58 58 58 58 58 59 57 57 57 56 55 58 60 59 59 58 58 58 56 57 57 57 57 57 57 58 59
45 48 51 51 57 57 58 58 57 58 58 57 56 56 56 56 57 58 59 60 59 59 57 57 56 57 57 57 57 57 57 58
42 43 47 55 56 56 57 58 57 57 57 56 57 56 57 57 57 58 57 58 57 58 58 57 56 56 56 56 55 55 54 55
40 41 43 53 55 56 57 57 56 57 56 56 56 56 57 56 56 56 57 56 57 58 58 58 56 55 55 54 54 53 53 54
38 38 39 42 48 55 56 56 55 56 56 55 57 56 56 55 55 56 58 57 57 57 58 58 57 56 55 54 53 52 52 52
35 35 36 38 41 44 47 55 57 56 55 54 55 55 55 56 55 57 56 56 57 56 56 57 57 57 56 55 53 52 51 51
33 33 34 34 37 39 41 44 49 52 50 50 50 51 54 54 53 52 54 53 53 54 56 56 53 43 39 43 52 55 54 54
32 31 32 32 34 35 37 39 41 44 44 44 44 45 46 45 44 44 44 43 43 43 42 41 40 37 36 37 41 52 52 51
32 31 31 32 33 34 34 36 37 38 39 40 40 40 40 39 39 38 38 38 37 37 37 37 35 36 36 38 39 43 39 38
34 32 31 33 33 34 34 35 35 35 36 37 37 37 36 36 35 34 34 34 34 34 34 34 34 34 36 35 34 34 33 32

GFSFLT1_sfc_dewp_093.txt.gz
Dewpoint
26 26 27 28 27 33 63 65 65 65 65 65 64 64 63 63 63 63 63 64 63 63 62 62 63 63 62 61 60 61 60 61
20 27 31 28 29 34 62 64 65 65 64 64 63 63 63 62 63 63 62 63 62 62 62 61 63 62 61 61 61 60 60 61
20 22 30 34 30 41 62 64 65 64 64 64 63 62 60 61 62 63 63 62 62 62 62 62 62 61 61 61 61 59 59 61
21 23 27 34 35 51 63 63 64 63 63 61 61 60 60 59 59 60 62 63 62 62 62 62 62 62 61 61 61 59 58 59
33 27 30 33 38 60 63 63 63 63 62 61 60 59 59 59 59 60 61 62 63 62 62 62 62 61 61 61 61 59 58 57
46 48 50 42 48 62 63 63 63 63 61 60 60 58 58 59 59 59 60 61 61 62 62 60 61 61 61 61 60 59 58 57
47 48 50 50 51 59 62 62 62 62 61 60 59 58 57 57 57 58 59 61 61 61 62 62 61 61 61 61 61 59 59 58
47 47 48 49 51 52 61 61 62 62 61 60 59 58 57 56 57 58 58 58 57 57 58 59 60 61 61 61 61 60 59 58
44 45 47 48 53 55 57 60 62 61 61 60 59 58 57 57 58 58 56 56 57 57 56 57 58 58 60 60 60 60 59 59
42 42 44 45 48 58 58 59 60 61 60 59 59 59 57 58 58 58 57 58 57 56 56 57 57 58 59 59 59 59 59 58
40 40 41 42 46 52 59 60 59 60 60 60 59 58 58 58 58 57 58 58 57 57 56 56 57 57 58 58 58 59 59 58
37 37 39 39 42 45 49 58 59 59 59 59 58 57 59 58 58 58 58 58 57 56 56 56 56 57 57 57 57 58 57 57
35 35 36 37 38 41 43 47 57 57 59 58 58 57 57 58 59 59 59 58 58 57 56 56 56 56 57 56 56 56 57 57
33 34 34 35 36 38 40 43 48 58 58 57 58 57 57 57 58 57 58 59 59 58 57 56 55 56 56 55 55 55 55 55
31 32 33 34 35 36 38 40 44 56 57 57 57 57 57 56 57 57 57 56 57 57 56 56 55 55 55 55 54 54 54 54
31 31 32 32 34 35 36 38 41 45 50 50 50 50 50 49 49 48 47 46 46 46 45 44 44 43 41 48 54 54 53 54
29 30 31 32 32 34 35 37 40 39 41 43 45 44 43 43 42 42 41 40 40 40 40 40 40 39 38 40 47 46 46 49
29 30 31 32 32 33 34 34 36 37 36 37 37 39 38 38 37 37 37 37 37 37 36 36 35 36 37 37 37 37 37 37
29 30 31 32 32 33 34 34 34 33 33 34 35 35 35 35 34 34 34 34 34 34 34 34 34 34 34 34 34 33 33 33